Regional Weather Roundup
Issued by NWS

Home | Current Version | Previous Version | Graphics & Text | Print | Product List | Glossary On
Versions: 1 2 3 4 5 6 7 8 9 10 11 12 13 14 15 16 17 18 19 20 21 22 23 24 25 26 27 28 29 30 31 32 33 34 35 36 37 38 39 40 41 42 43 44 45 46 47 48 49 50
000
ASUS45 KABQ 310401
RWRNM
WEATHER ROUNDUP FOR NEW MEXICO
NATIONAL WEATHER SERVICE ALBUQUERQUE NM
900 PM MST FRI JAN 30 2015

NOTE: "FAIR" MEANS FEW OR NO CLOUDS BELOW 12,000 FEET AGL WITH NO
       SIGNIFICANT WEATHER OR OBSTRUCTIONS TO VISION.

      THIS PRODUCT IS RELEASED AS TWO VERSIONS.  ONE VERSION NEAR
      THE TOP OF THE HOUR CONTAINING PRELIMINARY DATA FROM ALBUQUERQUE
      AND OTHER STATIONS.  A FINAL VERSION WITH ADDITIONAL DATA IS
      ISSUED ABOUT 10 MINUTES AFTER THE HOUR.

NMZ501-503-504-510>518-310500-
NORTHWEST PLATEAU/NORTHCENTRAL MOUNTAINS

CITY           SKY/WX    TMP DP  RH WIND       PRES   REMARKS
FARMINGTON     LGT RAIN  34  32  92 E8        29.98F WCI  27
SANTA FE       CLOUDY    30  28  92 S8        30.07F WCI  22
TAOS           CLOUDY    28  27  93 CALM      30.07S

$$
NMZ402-403-502-505>509-310500-
WESTCENTRAL MOUNTAINS/SOUTHWEST MOUNTAINS

CITY           SKY/WX    TMP DP  RH WIND       PRES   REMARKS
GALLUP         LGT RAIN  33  31  92 NE5       29.97S WCI  29
GRANTS         CLOUDY    32  31  98 S12G18    30.02S WCI  23
SILVER CITY    LGT RAIN  39  39 100 E7        30.02S WCI  34

$$
NMZ407-409-411-412-310500-
SOUTHERN DESERTS

CITY           SKY/WX    TMP DP  RH WIND       PRES   REMARKS
DEMING         LGT RAIN  43  42  97 E14       30.01S FOG
HOLLOMAN AFB   LGT RAIN  43  43 100 CALM      30.05F
ALAMOGORDO     LGT RAIN  41  41 100 CALM      30.07F
T OR C         LGT RAIN  40  39  97 CALM      30.03F

$$
NMZ519>523-310500-
CENTRAL VALLEYS/CENTRAL HIGHLANDS

CITY           SKY/WX    TMP DP  RH WIND       PRES   REMARKS
ALBUQUERQUE    CLOUDY    37  32  82 E10       30.05F WCI  30
DOUBLE EAGLE   CLOUDY    30  30 100 N6        30.06F WCI  24
MORIARTY ARPT  FLURRIES  31  29  93 SE6       30.10F WCI  25
CLINES CORNERS FOG       27  25  92 E10       30.07S VSB 1/2 WCI  17
BELEN          CLOUDY    34  34 100 NW6       30.05F FOG     WCI  29
SOCORRO        NOT AVBL

$$
NMZ524>526-539-540-310500-
SOUTHCENTRAL MOUNTAINS

CITY           SKY/WX    TMP DP  RH WIND       PRES   REMARKS
RUIDOSO        NOT AVBL

$$
NMZ527>531-310500-
NORTHEAST HIGHLANDS/NORTHEAST PLAINS

CITY           SKY/WX    TMP DP  RH WIND       PRES   REMARKS
LAS VEGAS      FOG       27  26  96 S13       30.09F VSB 1/2 WCI  16
RATON          LGT SNOW  29  28  96 CALM      30.10S FOG
CLAYTON        CLOUDY    33  31  92 S14       30.12F FOG     WCI  23

$$
NMZ532>537-310500-
EASTCENTRAL PLAINS

CITY           SKY/WX    TMP DP  RH WIND       PRES   REMARKS
TUCUMCARI      LGT RAIN  36  33  89 S5        30.17F WCI  32
CANNON AFB     CLOUDY    36  31  83 SE8       30.17S WCI  29
CLOVIS AIRPORT CLOUDY    36  28  75 SE14      30.17F WCI  27

$$
NMZ028-029-538-310500-
SOUTHEAST PLAINS

CITY           SKY/WX    TMP DP  RH WIND       PRES   REMARKS
ROSWELL        LGT RAIN  38  36  92 CALM      30.18S
ARTESIA        DRIZZLE   37  37 100 CALM      30.18F
CARLSBAD       LGT RAIN  40  37  89 CALM      30.16F FOG
HOBBS          CLOUDY    37  37 100 E5        30.19S WCI  34


$$



USA.gov is the U.S. government's official web portal to all federal, state and local government web resources and services.